[[{"header":{"parameterUnit":"m.s-1","parameterCategory":1,"la1":30.2991,"la2":30.254,"lo1":-89.0895,"lo2":-89.0444,"dy":0.0017,"dx":0.0017,"nx":28,"ny":28,"refTime":"2025-06-02T09:00:00:Z","depth":0,"parameterNumber":2,"parameterNumberName":"U-component_of_WINDS"},"data":[0,0,0,0,0,0,0,0,0,0,0,0,0,0,0,0,0,0,0,0,0,0,0,0,0,0,0,0,0,0,0,0,0,0,0,0,0,0,0,0,0,0,0,0,0,0,0,0,0,0,0,0,0,0,0,0,0,0,-2.2459,-2.2458,0,-2.2432,-2.2432,-2.2432,-2.2358,-2.2356,-2.2355,-2.2353,-2.2329,-2.233,-2.233,0,0,0,0,0,0,0,0,0,0,0,0,0,-2.2449,-2.245,-2.2459,-2.2458,-2.2458,-2.2432,-2.2432,-2.2432,-2.2358,-2.2356,-2.2354,-2.2353,-2.2329,-2.233,-2.2331,0,0,0,0,0,0,0,0,0,0,0,0,0,-2.2441,-2.245,-2.2459,-2.2418,-2.2414,-2.2432,-2.2432,-2.2432,-2.2359,-2.2356,-2.2354,-2.2352,-2.2328,-2.2329,-2.2331,-2.2387,0,0,-2.2335,-2.2335,0,0,0,0,0,0,0,0,-2.2442,-2.2442,-2.2425,-2.2421,-2.2417,-2.2396,-2.242,-2.2417,-2.2359,-2.238,-2.2353,-2.235,-2.2353,-2.2352,-2.2353,-2.2385,-2.2384,-2.2335,-2.2335,-2.2336,-2.2336,0,0,0,0,0,0,0,-2.2442,-2.2442,-2.2448,-2.2424,-2.242,-2.2403,-2.2399,-2.2419,-2.238,-2.2378,-2.2372,-2.237,-2.2351,-2.2352,-2.2352,-2.2384,-2.2335,-2.2336,-2.2336,-2.2337,-2.2464,-2.2466,0,0,0,0,0,0,-2.2448,-2.2443,-2.2449,-2.2447,-2.2424,-2.2405,-2.2401,-2.2405,-2.238,-2.2374,-2.2372,-2.2367,-2.2351,-2.235,-2.235,-2.2415,-2.2336,-2.2337,-2.2338,-2.2461,-2.2464,-2.2467,0,0,0,0,0,0,-2.2448,-2.245,-2.245,-2.2444,-2.2443,-2.2407,-2.2413,-2.2406,-2.2407,-2.2376,-2.2369,-2.238,-2.2349,-2.2349,-2.2378,-2.2413,-2.2338,-2.2339,-2.2458,-2.2462,-2.2466,-2.2544,0,0,0,0,0,0,-2.2449,-2.245,-2.247,-2.2445,-2.2443,-2.2477,-2.2415,-2.2407,-2.2409,-2.2401,-2.2381,-2.2376,-2.2347,-2.2377,-2.238,-2.2413,-2.234,-2.2455,-2.246,-2.2464,-2.2538,-2.255,-2.2561,0,0,0,0,0,-2.2448,-2.2493,-2.2471,-2.2472,-2.2467,-2.2479,-2.2479,-2.2444,-2.2412,-2.2432,-2.2413,-2.2376,-2.2409,-2.2381,-2.2383,-2.2418,-2.2452,-2.2458,-2.2464,-2.2533,-2.2548,-2.256,0,0,0,0,0,0,-2.2523,-2.2489,-2.2464,-2.2502,-2.2494,-2.2467,-2.2491,-2.246,-2.2462,-2.2455,-2.2413,-2.2409,-2.2445,-2.2435,-2.2403,-2.2472,-2.2425,-2.2432,-2.2477,-2.2491,-2.2502,-2.2503,-2.2341,0,0,0,0,0,-2.2544,-2.2556,-2.2526,-2.2562,-2.2559,-2.2527,-2.2531,-2.2505,-2.2495,-2.2492,-2.2474,-2.2468,-2.2477,-2.2483,-2.2489,-2.2537,-2.2533,-2.2563,-2.2574,-2.2583,-2.2589,-2.2615,-2.2629,-2.2486,-2.2486,-2.2486,0,0,-2.2587,-2.257,-2.258,-2.2577,-2.2567,-2.2582,-2.2524,-2.2541,-2.2552,-2.2495,-2.2521,-2.2509,-2.2499,-2.2538,-2.2555,-2.253,-2.2628,-2.2591,-2.2598,-2.2599,-2.2623,-2.2636,-2.2648,-2.249,-2.2489,-2.2489,0,0,-2.2672,-2.2661,-2.269,-2.2682,-2.267,-2.2648,-2.2655,-2.2633,-2.2623,-2.2649,-2.2607,-2.262,-2.2636,-2.2631,-2.263,-2.2718,-2.2685,-2.2721,-2.2779,-2.2805,-2.2816,-2.2826,-2.2858,-2.287,-2.2727,-2.2728,-2.2728,0,-2.2727,-2.2746,-2.2709,-2.273,-2.273,-2.2679,-2.271,-2.2705,-2.2695,-2.2697,-2.2671,-2.2691,-2.268,-2.2718,-2.274,-2.2741,-2.2749,-2.2722,-2.2817,-2.2827,-2.2835,-2.2865,-2.2877,-2.2732,-2.2732,-2.2731,-2.2731,0,-2.2816,-2.283,-2.2855,-2.2847,-2.2851,-2.2877,-2.2845,-2.2853,-2.2828,-2.281,-2.2839,-2.2825,-2.2828,-2.2836,-2.2811,-2.2872,-2.2857,-2.2825,-2.2776,-2.2854,-2.2881,-2.2893,-2.2739,-2.2737,-2.2736,-2.2735,0,0,-2.2945,-2.2917,-2.2927,-2.2924,-2.2907,-2.2918,-2.2943,-2.2946,-2.2955,-2.2951,-2.2971,-2.2987,-2.2958,-2.2958,-2.2933,-2.2956,-2.3027,-2.292,-2.2919,-2.2941,-2.3094,-2.3118,-2.3132,-2.3006,-2.3008,-2.3009,-2.3095,0,-2.3026,-2.3064,-2.3033,-2.3078,-2.3092,-2.3045,-2.3067,-2.306,-2.3045,-2.3055,-2.3038,-2.3051,-2.301,-2.301,-2.3031,-2.3014,-2.3057,-2.3007,-2.3025,-2.3026,-2.3028,-2.3146,-2.3171,-2.3252,-2.3105,-2.3107,-2.3108,0,-2.3124,-2.3125,-2.3172,-2.3154,-2.3159,-2.3179,-2.318,-2.319,-2.3183,-2.317,-2.3172,-2.3141,-2.3166,-2.312,-2.3154,-2.3121,-2.3127,-2.3121,-2.3123,-2.3123,-2.3071,-2.3149,-2.3277,-2.3289,-2.3125,-2.3123,-2.3122,0,-2.3215,-2.3227,-2.3257,-2.3256,-2.3236,-2.3251,-2.3244,-2.3234,-2.3239,-2.3241,-2.3244,-2.3249,-2.3252,-2.3258,-2.3231,-2.3199,-2.3269,-2.322,-2.326,-2.3261,-2.3276,-2.3275,-2.3407,-2.3281,-2.3281,-2.328,-2.328,0,-2.3308,-2.3338,-2.3297,-2.3316,-2.3349,-2.3314,-2.3349,-2.3337,-2.3329,-2.3345,-2.3306,-2.3323,-2.3286,-2.33,-2.3279,-2.3311,-2.3313,-2.3305,-2.3299,-2.3308,-2.3309,-2.331,-2.3304,-2.3283,-2.3283,-2.3282,-2.3282,0,-2.3413,-2.3387,-2.3417,-2.3396,-2.3392,-2.3418,-2.3401,-2.3418,-2.3401,-2.3422,-2.3425,-2.3399,-2.3413,-2.3387,-2.3398,-2.3384,-2.343,-2.3415,-2.3432,-2.3427,-2.3469,-2.3465,-2.3605,-2.3622,-2.3486,-2.3487,-2.3488,0,-2.3474,-2.3496,-2.3479,-2.3487,-2.3482,-2.3495,-2.35,-2.3467,-2.3474,-2.3469,-2.3487,-2.3498,-2.3504,-2.353,-2.3512,-2.3521,-2.3506,-2.3555,-2.3507,-2.3517,-2.3508,-2.3506,-2.3509,-2.3565,-2.3566,-2.3568,-2.3569,0,-2.3585,-2.3571,-2.3579,-2.3584,-2.3591,-2.3593,-2.3592,-2.3601,-2.3567,-2.3577,-2.3591,-2.3596,-2.3608,-2.362,-2.3625,-2.3619,-2.3589,-2.3584,-2.3594,-2.3603,-2.3612,-2.3608,-2.3458,-2.3581,-2.3579,-2.3579,-2.3578,-2.3577,-2.367,-2.3688,-2.3679,-2.369,-2.3686,-2.3687,-2.3702,-2.3688,-2.3698,-2.3705,-2.3686,-2.3705,-2.3699,-2.3703,-2.3701,-2.3716,-2.3694,-2.3708,-2.3712,-2.3716,-2.3722,-2.361,-2.3717,-2.3716,-2.3716,-2.3716,-2.3715,0,-2.3779,-2.3771,-2.3782,-2.3782,-2.3791,-2.3762,-2.3761,-2.3771,-2.3788,-2.3785,-2.3793,-2.381,-2.3822,-2.3807,-2.3816,-2.3832,-2.3819,-2.3836,-2.3834,-2.3833,-2.3741,-2.3731,-2.3846,-2.3846,-2.3846,-2.3846,-2.3846,-2.3846,-2.3836,-2.3866,-2.3852,-2.3881,-2.3873,-2.3891,-2.3893,-2.3894,-2.3892,-2.3913,-2.3922,-2.3912,-2.3905,-2.3915,-2.3925,-2.392,-2.3926,-2.3948,-2.3939,-2.3852,-2.384,-2.3827,-2.3818,-2.395,-2.395,-2.403,-2.4031,-2.4031]},{"header":{"parameterUnit":"m.s-1","parameterCategory":1,"la1":30.2991,"la2":30.254,"lo1":-89.0895,"lo2":-89.0444,"dy":0.0017,"dx":0.0017,"nx":28,"ny":28,"refTime":"2025-06-02T09:00:00:Z","depth":0,"parameterNumber":3,"parameterNumberName":"V-component_of_WINDS"},"data":[0,0,0,0,0,0,0,0,0,0,0,0,0,0,0,0,0,0,0,0,0,0,0,0,0,0,0,0,0,0,0,0,0,0,0,0,0,0,0,0,0,0,0,0,0,0,0,0,0,0,0,0,0,0,0,0,0,0,3.0978,3.0978,0,3.1008,3.1008,3.1009,3.1073,3.1075,3.1076,3.1077,3.1105,3.1105,3.1104,0,0,0,0,0,0,0,0,0,0,0,0,0,3.0972,3.0972,3.0978,3.0978,3.0978,3.1008,3.1008,3.1009,3.1073,3.1075,3.1076,3.1078,3.1106,3.1105,3.1104,0,0,0,0,0,0,0,0,0,0,0,0,0,3.0986,3.0972,3.0977,3.1014,3.1018,3.1008,3.1009,3.1009,3.1073,3.1075,3.1077,3.1079,3.1106,3.1105,3.1104,3.1061,0,0,3.1102,3.1102,0,0,0,0,0,0,0,0,3.0985,3.0986,3.1008,3.1011,3.1015,3.1039,3.1017,3.1026,3.1072,3.1052,3.1077,3.1079,3.1081,3.1083,3.1084,3.1062,3.1063,3.1102,3.1102,3.1101,3.1101,0,0,0,0,0,0,0,3.0984,3.0985,3.099,3.1008,3.1013,3.1028,3.1032,3.1019,3.1055,3.1054,3.1058,3.1061,3.1084,3.1085,3.1085,3.1064,3.1102,3.1102,3.1101,3.1101,3.1007,3.1005,0,0,0,0,0,0,3.0978,3.0984,3.0989,3.0991,3.1005,3.1027,3.1031,3.1029,3.1055,3.1061,3.106,3.1064,3.1085,3.1086,3.1087,3.1036,3.1101,3.1101,3.11,3.1009,3.1006,3.1004,0,0,0,0,0,0,3.0978,3.0978,3.0987,3.0988,3.0991,3.1025,3.1022,3.1029,3.103,3.106,3.1066,3.1054,3.1087,3.1088,3.1067,3.1038,3.11,3.11,3.1011,3.1008,3.1005,3.0936,0,0,0,0,0,0,3.0977,3.0977,3.0962,3.0988,3.0991,3.0967,3.102,3.1028,3.1029,3.1035,3.1057,3.1062,3.1088,3.1067,3.1066,3.1038,3.1099,3.1014,3.101,3.1006,3.0941,3.0931,3.0922,0,0,0,0,0,3.0977,3.094,3.096,3.0961,3.0972,3.0966,3.0967,3.0999,3.1026,3.101,3.103,3.1061,3.1042,3.1065,3.1064,3.1035,3.1016,3.1011,3.1006,3.0945,3.0933,3.0922,0,0,0,0,0,0,3.0909,3.0944,3.0967,3.0938,3.0949,3.0977,3.0957,3.0985,3.0987,3.0993,3.1032,3.1036,3.1009,3.1021,3.1045,3.0994,3.1034,3.1029,3.0988,3.0976,3.0967,3.0964,3.1099,0,0,0,0,0,3.0891,3.0884,3.0915,3.0887,3.0891,3.0923,3.0922,3.0946,3.0957,3.0962,3.098,3.0989,3.0985,3.0982,3.098,3.0944,3.0948,3.0924,3.0914,3.0906,3.0901,3.0881,3.087,3.0988,3.0988,3.0989,0,0,3.0853,3.0872,3.0864,3.0873,3.0884,3.0875,3.0926,3.0915,3.0908,3.096,3.0941,3.0954,3.0968,3.0938,3.0927,3.0947,3.087,3.09,3.0894,3.0893,3.0875,3.0864,3.0854,3.0985,3.0986,3.0986,0,0,3.0779,3.0793,3.077,3.078,3.0797,3.0818,3.0813,3.0837,3.0848,3.083,3.0869,3.0861,3.0854,3.0862,3.0864,3.0794,3.0822,3.0792,3.0743,3.0723,3.0714,3.0706,3.0679,3.0669,3.0787,3.0787,3.0787,0,3.0729,3.0718,3.0755,3.0741,3.0743,3.0791,3.0768,3.0775,3.079,3.079,3.0813,3.0805,3.0817,3.079,3.0773,3.0774,3.0768,3.0789,3.0713,3.0705,3.0698,3.0673,3.0663,3.0783,3.0783,3.0784,3.0784,0,3.0655,3.0647,3.0627,3.064,3.064,3.0622,3.0655,3.0651,3.0675,3.0694,3.0674,3.0691,3.0693,3.0689,3.0712,3.0665,3.0677,3.0706,3.0746,3.0682,3.0659,3.065,3.0777,3.0779,3.078,3.0781,0,0,3.0537,3.0573,3.0564,3.0571,3.0593,3.0586,3.057,3.0573,3.0568,3.0576,3.0562,3.0555,3.0582,3.0585,3.061,3.0593,3.0534,3.0624,3.0625,3.0605,3.0482,3.0459,3.0447,3.0554,3.0553,3.0552,3.048,0,3.0467,3.0441,3.0474,3.044,3.0433,3.0479,3.0464,3.0475,3.0493,3.0488,3.0507,3.0501,3.0538,3.054,3.0526,3.0545,3.051,3.0551,3.054,3.0539,3.0533,3.0435,3.0411,3.0343,3.0472,3.047,3.0469,0,3.0381,3.0386,3.0352,3.0376,3.0374,3.036,3.0365,3.0361,3.0374,3.0388,3.0392,3.0422,3.0406,3.0446,3.0424,3.0451,3.0449,3.0458,3.0456,3.0455,3.0499,3.043,3.0322,3.0311,3.0456,3.0457,3.0458,0,3.0296,3.0295,3.0274,3.0279,3.0306,3.0295,3.0306,3.0322,3.0322,3.0326,3.0326,3.0328,3.0329,3.033,3.0359,3.0386,3.0333,3.0376,3.0342,3.0341,3.0328,3.0328,3.0216,3.0329,3.0329,3.0329,3.033,0,3.0213,3.019,3.0237,3.0224,3.0199,3.0237,3.0211,3.0227,3.024,3.023,3.027,3.026,3.03,3.0294,3.0316,3.0294,3.0294,3.0304,3.031,3.03,3.0298,3.0297,3.0302,3.0327,3.0327,3.0328,3.0328,0,3.0114,3.0145,3.0125,3.0153,3.016,3.014,3.0164,3.0152,3.0173,3.016,3.0159,3.0191,3.0185,3.0215,3.0215,3.023,3.0196,3.0211,3.0191,3.0195,3.016,3.0162,3.0042,3.0028,3.0151,3.015,3.0149,0,3.0058,3.0041,3.0068,3.0065,3.0074,3.0068,3.0068,3.0105,3.0103,3.0118,3.0104,3.0102,3.0103,3.0091,3.0114,3.0114,3.0128,3.0086,3.0128,3.0118,3.0125,3.0125,3.0123,3.0077,3.0075,3.0074,3.0073,0,2.9955,2.9971,2.997,2.9974,2.9974,2.9978,2.9986,2.9981,3.0021,3.0017,3.0012,3.0012,3.0013,3.001,3.0014,3.0024,3.0054,3.006,3.0052,3.004,3.0029,3.0033,3.0166,3.0062,3.0063,3.0064,3.0064,3.0065,2.9874,2.9862,2.9878,2.9876,2.9886,2.9892,2.9883,2.9903,2.99,2.9903,2.9925,2.9916,2.993,2.9939,2.9947,2.994,2.9959,2.9948,2.9945,2.9941,2.9934,3.0031,2.9941,2.9941,2.9941,2.9942,2.9942,0,2.9772,2.9786,2.9783,2.9793,2.979,2.9821,2.9831,2.9827,2.9819,2.983,2.9829,2.9824,2.9821,2.9844,2.9844,2.9834,2.9847,2.9832,2.9833,2.9834,2.9917,2.9923,2.9821,2.9821,2.9821,2.9821,2.9821,2.9821,2.9718,2.9698,2.9716,2.9701,2.9714,2.9707,2.9709,2.9715,2.9724,2.9716,2.9714,2.973,2.9745,2.9747,2.9745,2.9752,2.975,2.9729,2.974,2.9817,2.9828,2.984,2.9846,2.9729,2.9729,2.9658,2.9657,2.9657]}]]